Terminal Aerodrome Forecast
Issued by NWS Atlanta, GA

Home | Current Version | Previous Version | Text Only | Print | Product List | Glossary On
Versions: 1 2 3 4 5 6 7 8 9 10 11 12 13 14 15 16 17 18 19 20 21 22 23 24 25 26 27 28 29 30 31 32 33 34 35 36
931
FTAK31 PAJN 251520 AAA
TAFAHN
TAF AMD
PAHN 251520Z 2515/2612 VRB04KT P6SM OVC009
     FM251700 08007KT P6SM BKN015 OVC030
     FM252100 12008KT P6SM BKN025 OVC050
     FM260000 12007KT P6SM SCT025 OVC050
     FM260800 12007KT P6SM SCT050
      AMD LTD TO CLD VIS AND WIND=

USA.gov is the U.S. government's official web portal to all federal, state and local government web resources and services.